Content
SEND FEEDBACK

Daily
Averages
Monthly
Summary
Czech Republic

OSTRAVA, CZECH REPUBLIC


Home > Europe > Czech Republic
Elevation: 840 feet     Latitude: 49 41N     Longitude: 018 07E

WEATHER
 
SELECT A DAY
Number of Records: 306,450;   Date Range: 1/10/97 - 10/19/14
 
SHARE

PRINT THIS DATA

[ ← Previous Day ]
WEATHER ALMANAC - FEBRUARY 13, 2013
[ Next Day → ]
[ °C ]   °F
Weather ElementAverageHighLow
Temperature28.8 °F30.2 °F (12:00 pm)26.6 °F (12:30 am)
Dewpoint27 °F28.4 °F (1:00 pm)26 °F (1:00 am)
Humidity92.8 %100 % (12:30 am)85 % (1:00 pm)
Barometer30.07 in30.25 in (7:00 pm)29.92 in (12:30 am)
Wind Speed7.1 mph13.8 mph (10:30 pm)
Weather ElementAverage
Visibility1.1 mi
Wind DirectionNNE (25.6 °)

Weather ElementTotal
Precipitation---
Heating Degree Days36.6 (Base 65)
Averaged from 52 records on February 13, 2013
WEATHER CONDITIONS BREAKOUT
WIND DIRECTION BREAKOUT
WEATHER BY HOUR - FEBRUARY 13, 2013
[ °C ]   °F
Local TimeTemperatureDewpointHumidityBarometerVisibilityWind DirectionWind SpeedGust SpeedPrecipitationEventsConditions
12:30 AM26.6 °F26.6 °F100 %29.92 in0.8 miNE (40°)3.5 mphSnowSnow
1:00 AM27.0 °F26.0 °F94 %29.99 in1.0 miNNE (30°)4.5 mphSnowSnow
1:00 AM26.6 °F26.6 °F100 %29.92 in0.8 miNE (40°)3.5 mphSnowSnow
1:30 AM26.6 °F26.6 °F100 %29.92 in0.7 miNE (40°)2.3 mphSnowSnow
1:45 AM26.6 °F26.6 °F100 %29.92 in0.5 miNNE (30°)2.3 mphSnowSnow
2:00 AM26.6 °F26.6 °F100 %29.92 in0.5 miNNE (30°)3.5 mphSnowSnow
2:30 AM26.6 °F26.6 °F100 %29.95 in0.7 miNNE (20°)2.3 mphSnowLight Snow
3:00 AM26.6 °F26.6 °F100 %29.95 in0.8 miNorth (10°)2.3 mphSnowSnow
3:30 AM26.6 °F26.6 °F100 %29.95 in0.7 miCalmSnowSnow
4:00 AM26.6 °F26.6 °F100 %29.95 in0.6 miCalmSnowSnow
4:30 AM26.6 °F26.6 °F100 %29.95 in0.6 miENE (70°)2.3 mphSnowSnow
5:00 AM28.4 °F26.6 °F93 %29.95 in0.8 miNE (50°)3.5 mphSnowLight Snow
5:30 AM28.4 °F26.6 °F93 %29.95 in0.7 miNE (50°)2.3 mphSnowSnow
6:00 AM28.4 °F26.6 °F93 %29.98 in0.7 miENE (60°)3.5 mphSnowSnow
6:30 AM28.4 °F26.6 °F93 %29.98 in0.7 miNE (50°)4.6 mphSnowSnow
7:00 AM28.0 °F26.0 °F91 %30.05 in1.0 miNE (40°)6.7 mphSnowSnow
7:00 AM28.4 °F26.6 °F93 %29.98 in0.6 miNE (40°)5.8 mphSnowSnow
7:30 AM28.4 °F26.6 °F93 %30.01 in0.7 miNE (40°)5.8 mphSnowLight Snow
8:00 AM28.4 °F26.6 °F93 %30.01 in0.8 miNE (40°)6.9 mphSnowLight Snow
8:30 AM28.4 °F26.6 °F93 %30.01 in0.7 miNE (40°)6.9 mphSnowLight Snow
9:00 AM28.4 °F26.6 °F93 %30.04 in0.8 miNE (40°)4.6 mphSnowLight Snow
9:30 AM28.4 °F26.6 °F93 %30.04 in0.9 miNNE (30°)5.8 mphSnowLight Snow
10:00 AM28.4 °F26.6 °F93 %30.04 in1.1 miNNE (30°)5.8 mphSnowLight Snow
10:30 AM28.4 °F26.6 °F93 %30.06 in1.0 miNNE (20°)6.9 mphSnowLight Snow
11:00 AM28.4 °F26.6 °F93 %30.06 in1.0 miNorth (10°)8.1 mphSnowLight Snow
11:30 AM28.4 °F26.6 °F93 %30.06 in1.0 miNorth (10°)6.9 mphSnowLight Snow
12:00 PM30.2 °F26.6 °F86 %30.09 in1.1 miNorth (10°)8.1 mphSnowLight Snow
12:30 PM30.2 °F26.6 °F86 %30.09 in1.1 miNNE (20°)6.9 mphSnowLight Snow
1:00 PM30.0 °F27.0 °F85 %30.16 in1.0 miNorth (10°)8.9 mphSnowLight Snow
1:00 PM30.2 °F28.4 °F93 %30.09 in1.1 miNorth (10°)9.2 mphSnowLight Snow
1:30 PM30.2 °F28.4 °F93 %30.09 in1.2 miNNE (20°)8.1 mphSnowLight Snow
2:00 PM30.2 °F28.4 °F93 %30.12 in1.2 miNNE (20°)6.9 mphSnowLight Snow
2:30 PM30.2 °F28.4 °F93 %30.12 in1.0 miNorth (10°)8.1 mphSnowLight Snow
3:00 PM30.2 °F28.4 °F93 %30.12 in1.1 miNNE (20°)10.4 mphSnowLight Snow
3:30 PM30.2 °F28.4 °F93 %30.12 in1.1 miNNE (20°)8.1 mphSnowLight Snow
4:00 PM30.2 °F28.4 °F93 %30.15 in1.1 miNNE (20°)9.2 mphSnowLight Snow
4:30 PM30.2 °F28.4 °F93 %30.15 in1.4 miNNE (20°)10.4 mphSnowLight Snow
5:00 PM30.2 °F28.4 °F93 %30.15 in1.2 miNNE (20°)9.2 mphSnowLight Snow
5:30 PM30.2 °F26.6 °F86 %30.15 in1.6 miNNE (20°)10.4 mphSnowLight Snow
6:00 PM30.2 °F26.6 °F86 %30.18 in1.6 miNNE (20°)10.4 mphSnowLight Snow
6:30 PM30.2 °F26.6 °F86 %30.18 in1.6 miNNE (30°)9.2 mphSnowLight Snow
7:00 PM29.0 °F27.0 °F91 %30.25 in2.0 miNNE (20°)11.2 mphSnowLight Snow
7:00 PM30.2 °F26.6 °F86 %30.18 in1.6 miNNE (20°)10.4 mphSnowLight Snow
7:30 PM28.4 °F26.6 °F93 %30.18 in1.6 miNNE (20°)11.5 mphSnowLight Snow
8:00 PM28.4 °F26.6 °F93 %30.18 in1.6 miNNE (20°)10.4 mphSnowLight Snow
8:30 PM30.2 °F26.6 °F86 %30.21 in1.6 miNNE (20°)11.5 mphSnowLight Snow
9:00 PM30.2 °F26.6 °F86 %30.21 in1.6 miNorth (10°)9.2 mphSnowLight Snow
9:30 PM30.2 °F26.6 °F86 %30.21 in1.7 miNorth (10°)11.5 mphOvercast
10:00 PM30.2 °F26.6 °F86 %30.21 in1.7 miNNE (20°)12.7 mphOvercast
10:30 PM30.2 °F28.4 °F93 %30.21 in1.9 miNNE (20°)13.8 mphOvercast
11:00 PM30.2 °F28.4 °F93 %30.21 in2.2 miNNE (20°)12.7 mphOvercast
11:30 PM30.2 °F28.4 °F93 %30.21 in2.2 miNNE (20°)11.5 mphOvercast
Hourly data recorded from LKMT, located miles away from Ostrava, Czech Republic







STORIES FROM OUR PARTNERS